| time (UTC) | temp F | wind direction | speed MPH | gust MPH | rain 1hr in | rain 24hr in | rain mn in | humidity % | barometer mb |
| 20260902132730 | 71 | 268 | 2.0 | 6.0 | 0.00 | 0.00 | 0.00 | 64 | 1018.7 |
| 20260902131727 | 71 | 265 | 2.0 | 6.0 | 0.00 | 0.00 | 0.00 | 65 | 1018.9 |
| 20260902130725 | 69 | 265 | 3.0 | 6.0 | 0.00 | 0.00 | 0.00 | 67 | 1018.9 |
| 20260902125721 | 70 | 258 | 2.0 | 6.0 | 0.00 | 0.00 | 0.00 | 66 | 1019.0 |
| 20260902124718 | 70 | 261 | 3.0 | 6.0 | 0.00 | 0.00 | 0.00 | 66 | 1019.0 |
| 20260902123715 | 69 | 258 | 2.0 | 4.0 | 0.00 | 0.00 | 0.00 | 67 | 1019.1 |
| 20260902122737 | 69 | 256 | 3.0 | 6.0 | 0.00 | 0.00 | 0.00 | 66 | 1019.2 |
| 20260902121729 | 70 | 257 | 3.0 | 7.0 | 0.00 | 0.00 | 0.00 | 63 | 1019.1 |
| 20260902120727 | 69 | 253 | 3.0 | 6.0 | 0.00 | 0.00 | 0.00 | 64 | 1019.2 |
| 20260902115724 | 69 | 268 | 3.0 | 7.0 | 0.00 | 0.00 | 0.00 | 64 | 1019.1 |
| 20260902114721 | 69 | 240 | 3.0 | 6.0 | 0.00 | 0.00 | 0.00 | 64 | 1019.0 |
| 20260902113718 | 69 | 260 | 3.0 | 7.0 | 0.00 | 0.00 | 0.00 | 63 | 1019.0 |
| 20260902112740 | 69 | 257 | 3.0 | 10.0 | 0.00 | 0.00 | 0.00 | 64 | 1019.0 |
| 20260902111732 | 69 | 255 | 3.0 | 7.0 | 0.00 | 0.00 | 0.00 | 64 | 1019.1 |
| 20260902110735 | 70 | 245 | 3.0 | 7.0 | 0.00 | 0.00 | 0.00 | 63 | 1019.1 |
| 20260902105726 | 70 | 257 | 3.0 | 6.0 | 0.00 | 0.00 | 0.00 | 62 | 1019.2 |
| 20260902104722 | 70 | 256 | 2.0 | 6.0 | 0.00 | 0.00 | 0.00 | 64 | 1019.2 |
| 20260902103719 | 69 | 252 | 2.0 | 3.0 | 0.00 | 0.00 | 0.00 | 65 | 1019.2 |
| 20260902102721 | 69 | 268 | 3.0 | 6.0 | 0.00 | 0.00 | 0.00 | 65 | 1019.2 |
| 20260902101733 | 69 | 263 | 3.0 | 6.0 | 0.00 | 0.00 | 0.00 | 64 | 1019.3 |
| 20260902100730 | 69 | 256 | 2.0 | 4.0 | 0.00 | 0.00 | 0.00 | 63 | 1019.3 |
| 20260902095728 | 69 | 274 | 3.0 | 7.0 | 0.00 | 0.00 | 0.00 | 64 | 1019.3 |
| 20260902094726 | 68 | 249 | 3.0 | 6.0 | 0.00 | 0.00 | 0.00 | 66 | 1019.2 |
| 20260902093721 | 69 | 268 | 3.0 | 6.0 | 0.00 | 0.01 | 0.00 | 66 | 1019.2 |
| 20260902092718 | 68 | 254 | 3.0 | 7.0 | 0.00 | 0.01 | 0.00 | 68 | 1019.2 |
| 20260902091715 | 67 | 260 | 3.0 | 6.0 | 0.00 | 0.01 | 0.00 | 69 | 1019.3 |
| 20260902090733 | 67 | 270 | 4.0 | 8.0 | 0.00 | 0.01 | 0.00 | 69 | 1019.2 |
| 20260902085730 | 66 | 261 | 2.0 | 7.0 | 0.00 | 0.01 | 0.00 | 70 | 1019.3 |
| 20260902084727 | 66 | 265 | 3.0 | 6.0 | 0.00 | 0.01 | 0.00 | 71 | 1019.2 |
| 20260902083724 | 65 | 240 | 2.0 | 4.0 | 0.00 | 0.02 | 0.00 | 72 | 1019.2 |
| 20260902082722 | 64 | 258 | 2.0 | 4.0 | 0.00 | 0.04 | 0.00 | 75 | 1019.2 |
| 20260902081718 | 64 | 257 | 2.0 | 4.0 | 0.00 | 0.04 | 0.00 | 76 | 1019.0 |
| 20260902080735 | 63 | 260 | 2.0 | 3.0 | 0.00 | 0.05 | 0.00 | 77 | 1019.1 |
| 20260902075732 | 63 | 257 | 1.0 | 3.0 | 0.00 | 0.05 | 0.00 | 78 | 1019.1 |
| 20260902074729 | 62 | 252 | 2.0 | 4.0 | 0.00 | 0.05 | 0.00 | 80 | 1019.0 |
| 20260902073726 | 61 | 256 | 1.0 | 2.0 | 0.00 | 0.05 | 0.00 | 82 | 1019.0 |
| 20260902072724 | 61 | 256 | 1.0 | 2.0 | 0.00 | 0.05 | 0.00 | 82 | 1018.9 |
| 20260902071721 | 61 | 239 | 1.0 | 2.0 | 0.00 | 0.05 | 0.00 | 82 | 1019.0 |
| 20260902070717 | 61 | 256 | 1.0 | 3.0 | 0.00 | 0.05 | 0.00 | 83 | 1019.0 |
| 20260902065734 | 60 | 203 | 0.0 | 1.0 | 0.00 | 0.05 | 0.00 | 84 | 1018.9 |
| 20260902064731 | 59 | 152 | 0.0 | 2.0 | 0.00 | 0.05 | 0.00 | 84 | 1018.9 |
| 20260902063728 | 59 | 153 | 0.0 | 1.0 | 0.00 | 0.05 | 0.00 | 85 | 1018.8 |
| 20260902062726 | 58 | 0.0 | 0.0 | 0.00 | 0.05 | 0.00 | 85 | 1018.8 | |
| 20260902061723 | 58 | 0.0 | 0.0 | 0.00 | 0.05 | 0.00 | 85 | 1018.7 | |
| 20260902060720 | 58 | 0.0 | 0.0 | 0.00 | 0.05 | 0.00 | 85 | 1018.8 | |
| 20260902055716 | 58 | 0.0 | 0.0 | 0.00 | 0.05 | 0.00 | 85 | 1018.9 | |
| 20260902054734 | 58 | 156 | 0.0 | 1.0 | 0.00 | 0.05 | 0.00 | 85 | 1018.8 |
| 20260902053731 | 57 | 0.0 | 0.0 | 0.00 | 0.05 | 0.00 | 85 | 1018.9 | |
| 20260902052732 | 57 | 136 | 0.0 | 1.0 | 0.00 | 0.05 | 0.00 | 86 | 1018.7 |
| 20260902051724 | 57 | 162 | 0.0 | 1.0 | 0.00 | 0.05 | 0.00 | 86 | 1018.6 |
| 20260902050721 | 56 | 0.0 | 0.0 | 0.00 | 0.05 | 0.00 | 87 | 1018.5 | |
| 20260902045718 | 56 | 0.0 | 0.0 | 0.00 | 0.05 | 0.00 | 87 | 1018.6 | |
| 20260902044715 | 56 | 0.0 | 0.0 | 0.00 | 0.05 | 0.00 | 86 | 1018.6 | |
| 20260902043733 | 57 | 0.0 | 0.0 | 0.00 | 0.05 | 0.00 | 85 | 1018.5 | |
| 20260902042741 | 57 | 0.0 | 0.0 | 0.00 | 0.05 | 0.00 | 85 | 1018.5 | |
| 20260902041727 | 57 | 0.0 | 0.0 | 0.00 | 0.05 | 0.00 | 86 | 1018.6 | |
| 20260902040724 | 57 | 0.0 | 0.0 | 0.00 | 0.05 | 0.00 | 86 | 1018.7 | |
| 20260902035720 | 57 | 0.0 | 0.0 | 0.00 | 0.05 | 0.00 | 86 | 1018.7 | |
| 20260902034718 | 57 | 0.0 | 0.0 | 0.00 | 0.05 | 0.00 | 86 | 1018.7 | |
| 20260902033735 | 57 | 0.0 | 0.0 | 0.00 | 0.05 | 0.00 | 85 | 1018.8 | |
| 20260902032732 | 57 | 0.0 | 0.0 | 0.00 | 0.05 | 0.00 | 85 | 1018.8 | |
| 20260902031729 | 57 | 147 | 0.0 | 1.0 | 0.00 | 0.05 | 0.00 | 85 | 1018.8 |
| 20260902030726 | 57 | 0.0 | 0.0 | 0.00 | 0.05 | 0.00 | 85 | 1018.8 | |
| 20260902025723 | 57 | 0.0 | 0.0 | 0.00 | 0.05 | 0.00 | 85 | 1018.8 | |
| 20260902024720 | 57 | 150 | 0.0 | 1.0 | 0.00 | 0.05 | 0.00 | 85 | 1018.8 |
| 20260902023717 | 57 | 161 | 0.0 | 1.0 | 0.00 | 0.05 | 0.00 | 86 | 1018.9 |
| 20260902022735 | 57 | 0.0 | 0.0 | 0.00 | 0.05 | 0.00 | 86 | 1019.1 | |
| 20260902021731 | 58 | 0.0 | 0.0 | 0.00 | 0.05 | 0.00 | 85 | 1019.1 | |
| 20260902020730 | 58 | 0.0 | 0.0 | 0.00 | 0.05 | 0.00 | 84 | 1019.0 | |
| 20260902015725 | 57 | 160 | 0.0 | 1.0 | 0.00 | 0.05 | 0.00 | 84 | 1019.0 |
| 20260902014722 | 58 | 143 | 0.0 | 1.0 | 0.00 | 0.05 | 0.00 | 84 | 1019.0 |
| 20260902013719 | 57 | 151 | 0.0 | 2.0 | 0.00 | 0.05 | 0.00 | 84 | 1019.0 |
| 20260902012721 | 58 | 166 | 0.0 | 1.0 | 0.00 | 0.05 | 0.00 | 83 | 1018.9 |
| 20260902011733 | 57 | 154 | 1.0 | 2.0 | 0.00 | 0.05 | 0.00 | 83 | 1019.0 |
| 20260902010731 | 57 | 151 | 0.0 | 2.0 | 0.00 | 0.05 | 0.00 | 83 | 1019.0 |
| 20260902005728 | 57 | 0.0 | 0.0 | 0.00 | 0.05 | 0.00 | 83 | 1019.0 | |
| 20260902004724 | 57 | 159 | 1.0 | 2.0 | 0.00 | 0.05 | 0.00 | 84 | 1019.0 |
| 20260902003721 | 56 | 0.0 | 0.0 | 0.00 | 0.05 | 0.00 | 86 | 1019.0 | |
| 20260902002719 | 56 | 0.0 | 0.0 | 0.00 | 0.05 | 0.00 | 87 | 1019.2 | |
| 20260902001715 | 55 | 0.0 | 0.0 | 0.00 | 0.05 | 0.00 | 88 | 1019.2 | |
| 20260902000733 | 55 | 157 | 0.0 | 1.0 | 0.00 | 0.05 | 0.00 | 89 | 1019.1 |
| 20260901235730 | 55 | 0.0 | 0.0 | 0.00 | 0.05 | 0.00 | 89 | 1019.2 | |
| 20260901234727 | 55 | 178 | 0.0 | 1.0 | 0.00 | 0.05 | 0.00 | 88 | 1019.3 |
| 20260901233727 | 55 | 0.0 | 0.0 | 0.00 | 0.05 | 0.00 | 86 | 1019.3 | |
| 20260901232721 | 55 | 0.0 | 0.0 | 0.00 | 0.05 | 0.00 | 86 | 1019.2 | |
| 20260901231718 | 56 | 0.0 | 0.0 | 0.00 | 0.05 | 0.00 | 87 | 1019.1 | |
| 20260901230735 | 55 | 0.0 | 0.0 | 0.00 | 0.05 | 0.00 | 87 | 1019.3 | |
| 20260901225732 | 55 | 0.0 | 0.0 | 0.00 | 0.05 | 0.00 | 88 | 1019.3 | |
| 20260901224729 | 55 | 0.0 | 0.0 | 0.00 | 0.05 | 0.00 | 88 | 1019.6 | |
| 20260901223726 | 55 | 0.0 | 0.0 | 0.00 | 0.05 | 0.00 | 88 | 1019.7 | |
| 20260901222723 | 54 | 0.0 | 0.0 | 0.00 | 0.05 | 0.00 | 88 | 1019.8 | |
| 20260901221719 | 54 | 0.0 | 0.0 | 0.00 | 0.05 | 0.00 | 89 | 1019.8 | |
| 20260901220717 | 54 | 0.0 | 0.0 | 0.00 | 0.05 | 0.00 | 88 | 1019.9 | |
| 20260901215734 | 54 | 0.0 | 0.0 | 0.00 | 0.05 | 0.05 | 88 | 1019.9 | |
| 20260901214731 | 54 | 0.0 | 0.0 | 0.00 | 0.05 | 0.05 | 86 | 1020.0 | |
| 20260901213728 | 54 | 0.0 | 0.0 | 0.00 | 0.05 | 0.05 | 86 | 1019.9 | |
| 20260901212725 | 54 | 0.0 | 0.0 | 0.00 | 0.05 | 0.05 | 85 | 1019.8 | |
| 20260901211722 | 55 | 0.0 | 0.0 | 0.00 | 0.05 | 0.05 | 85 | 1019.6 | |
| 20260901210719 | 55 | 0.0 | 0.0 | 0.00 | 0.05 | 0.05 | 83 | 1019.7 | |
| 20260901205716 | 56 | 0.0 | 0.0 | 0.00 | 0.05 | 0.05 | 83 | 1019.6 | |
| 20260901204733 | 56 | 0.0 | 0.0 | 0.00 | 0.05 | 0.05 | 82 | 1019.5 | |
| 20260901203730 | 56 | 0.0 | 0.0 | 0.00 | 0.05 | 0.05 | 81 | 1019.4 | |
| 20260901202727 | 57 | 0.0 | 0.0 | 0.00 | 0.05 | 0.05 | 81 | 1019.5 | |
| 20260901201724 | 57 | 0.0 | 0.0 | 0.00 | 0.05 | 0.05 | 81 | 1019.5 | |
| 20260901200720 | 57 | 0.0 | 0.0 | 0.00 | 0.08 | 0.05 | 81 | 1019.5 | |
| 20260901195718 | 57 | 0.0 | 0.0 | 0.00 | 0.08 | 0.05 | 80 | 1019.4 | |
| 20260901194735 | 58 | 0.0 | 0.0 | 0.00 | 0.08 | 0.05 | 79 | 1019.4 | |
| 20260901193732 | 58 | 0.0 | 0.0 | 0.00 | 0.08 | 0.05 | 78 | 1019.4 | |
| 20260901192729 | 59 | 0.0 | 0.0 | 0.00 | 0.08 | 0.05 | 77 | 1019.4 | |
| 20260901191726 | 60 | 0.0 | 0.0 | 0.00 | 0.08 | 0.05 | 75 | 1019.4 | |
| 20260901190723 | 60 | 0.0 | 0.0 | 0.00 | 0.08 | 0.05 | 74 | 1019.4 | |
| 20260901185720 | 61 | 0.0 | 0.0 | 0.00 | 0.08 | 0.05 | 73 | 1019.5 | |
| 20260901184716 | 62 | 0.0 | 0.0 | 0.00 | 0.08 | 0.05 | 69 | 1019.4 | |
| 20260901183734 | 63 | 0.0 | 0.0 | 0.00 | 0.08 | 0.05 | 66 | 1019.3 | |
| 20260901182731 | 64 | 0.0 | 0.0 | 0.00 | 0.08 | 0.05 | 64 | 1019.2 | |
| 20260901181728 | 65 | 0.0 | 0.0 | 0.00 | 0.08 | 0.05 | 63 | 1019.2 | |
| 20260901180725 | 65 | 0.0 | 0.0 | 0.00 | 0.08 | 0.05 | 62 | 1019.2 | |
| 20260901175722 | 66 | 313 | 0.0 | 1.0 | 0.00 | 0.08 | 0.05 | 61 | 1019.2 |
| 20260901174718 | 67 | 291 | 1.0 | 2.0 | 0.00 | 0.08 | 0.05 | 59 | 1019.2 |
| 20260901173716 | 68 | 309 | 1.0 | 2.0 | 0.00 | 0.08 | 0.05 | 58 | 1019.0 |
| 20260901172738 | 68 | 299 | 1.0 | 2.0 | 0.00 | 0.08 | 0.05 | 58 | 1019.0 |
| 20260901171730 | 69 | 307 | 1.0 | 2.0 | 0.00 | 0.08 | 0.05 | 57 | 1018.9 |
| 20260901170726 | 69 | 277 | 1.0 | 3.0 | 0.00 | 0.08 | 0.05 | 56 | 1018.9 |
| 20260901165723 | 70 | 266 | 2.0 | 6.0 | 0.00 | 0.08 | 0.05 | 54 | 1018.9 |
| 20260901164720 | 70 | 265 | 2.0 | 3.0 | 0.00 | 0.08 | 0.05 | 54 | 1018.9 |
| 20260901163718 | 71 | 300 | 1.0 | 3.0 | 0.00 | 0.08 | 0.05 | 54 | 1018.7 |
| 20260901162734 | 71 | 263 | 2.0 | 4.0 | 0.00 | 0.08 | 0.05 | 55 | 1018.6 |
| 20260901161733 | 71 | 291 | 2.0 | 8.0 | 0.00 | 0.08 | 0.05 | 53 | 1018.7 |
| 20260901160728 | 71 | 298 | 2.0 | 7.0 | 0.00 | 0.08 | 0.05 | 55 | 1018.6 |
| 20260901155726 | 71 | 296 | 2.0 | 3.0 | 0.00 | 0.08 | 0.05 | 56 | 1018.7 |
| 20260901154723 | 71 | 312 | 3.0 | 4.0 | 0.00 | 0.08 | 0.05 | 56 | 1018.7 |
| 20260901153720 | 71 | 327 | 2.0 | 6.0 | 0.00 | 0.08 | 0.05 | 57 | 1018.6 |
| 20260901152722 | 70 | 305 | 3.0 | 8.0 | 0.00 | 0.08 | 0.05 | 57 | 1018.5 |
| 20260901151734 | 72 | 317 | 2.0 | 4.0 | 0.00 | 0.08 | 0.05 | 56 | 1018.5 |
| 20260901150731 | 71 | 305 | 3.0 | 8.0 | 0.00 | 0.08 | 0.05 | 57 | 1018.5 |
| 20260901145728 | 70 | 282 | 2.0 | 4.0 | 0.00 | 0.08 | 0.05 | 58 | 1018.5 |
| 20260901144725 | 69 | 278 | 3.0 | 7.0 | 0.00 | 0.08 | 0.05 | 60 | 1018.4 |
| 20260901143722 | 71 | 315 | 3.0 | 6.0 | 0.00 | 0.08 | 0.05 | 58 | 1018.4 |
| 20260901142719 | 72 | 302 | 3.0 | 7.0 | 0.00 | 0.08 | 0.05 | 58 | 1018.4 |
| 20260901141716 | 70 | 267 | 2.0 | 4.0 | 0.00 | 0.08 | 0.05 | 60 | 1018.4 |
| 20260901140733 | 69 | 275 | 3.0 | 4.0 | 0.00 | 0.08 | 0.05 | 63 | 1018.4 |
| 20260901135730 | 68 | 259 | 3.0 | 7.0 | 0.00 | 0.09 | 0.05 | 66 | 1018.4 |
| 20260901134728 | 68 | 285 | 2.0 | 6.0 | 0.00 | 0.09 | 0.05 | 66 | 1018.5 |
| 20260901133724 | 69 | 254 | 3.0 | 6.0 | 0.00 | 0.09 | 0.05 | 65 | 1018.3 |